Pasco, WA
on Tuesday, February 26, 2013

Tuesday
Previous Day Next Day
Daily Summary
 ActualAverageRecord
Temperature
Mean Temperature °F 41°F  
Max Temperature 51°F 53°F 62°F (2005)
Min Temperature 29°F 29°F 0°F (1989)
Degree Days
Heating Degree Days 25 24  
Month to date heating degree days 668 685  
Since 1 July heating degree days 3579 3836  
Cooling Degree Days 0 0  
Month to date cooling degree days 0 0  
Year to date cooling degree days 0 0  
Moisture
Dew Point 27°F   
Average Humidity 62    
Maximum Humidity 85    
Minimum Humidity 38    
Precipitation
Precipitation 0.00 in in 0.30 in (1978)
Month to date precipitation 0.06  
Year to date precipitation 0.42  
Snow
Snow 0.00 in in in ()
Snow Depth 0.00 in   
Wind
Wind Speed 8 mph   
Max Wind Speed 14 mph   
Max Gust Speed 18 mph   
Visibility 10 miles   
Events     

Key: T is trace of precipitation, MM is missing value
Source: NWS Daily Summary
Time(PST)TemperatureDew PointHumidity Pressure Visibility Wind DirectionWind SpeedGust SpeedPrecipitationEvents Conditions
12:53 AM 34.0°F 26.1°F 73% 30.27 in 10.0 miles SW 12.7 mph - N/A   Clear
1:53 AM 33.1°F 26.1°F 75% 30.28 in 10.0 miles SW 11.5 mph - N/A   Clear
2:53 AM 33.1°F 27.0°F 78% 30.29 in 10.0 miles SSW 11.5 mph - N/A   Clear
3:53 AM 32.0°F 27.0°F 82% 30.30 in 10.0 miles SSW 6.9 mph - N/A   Clear
4:53 AM 30.9°F 26.1°F 82% 30.32 in 10.0 miles South 3.5 mph - N/A   Clear
5:53 AM 28.9°F 25.0°F 85% 30.33 in 10.0 miles Calm Calm - N/A   Clear
6:53 AM 30.9°F 25.0°F 79% 30.35 in 10.0 miles SSE 4.6 mph - N/A   Clear
7:53 AM 32.0°F 27.0°F 82% 30.36 in 10.0 miles ESE 4.6 mph - N/A   Clear
8:53 AM 39.9°F 28.9°F 65% 30.37 in 10.0 miles SSW 9.2 mph - N/A   Clear
9:53 AM 43.0°F 28.9°F 58% 30.38 in 10.0 miles SSW 10.4 mph - N/A   Clear
10:53 AM 46.0°F 28.0°F 50% 30.37 in 10.0 miles SSW 11.5 mph - N/A   Clear
11:53 AM 48.0°F 27.0°F 44% 30.35 in 10.0 miles South 8.1 mph - N/A   Clear
12:53 PM 48.9°F 26.1°F 41% 30.33 in 10.0 miles South 8.1 mph 16.1 mph N/A   Clear
1:53 PM 50.0°F 27.0°F 41% 30.30 in 10.0 miles SSW 9.2 mph - N/A   Clear
2:53 PM 51.1°F 27.0°F 39% 30.30 in 10.0 miles SW 11.5 mph 16.1 mph N/A   Clear
3:53 PM 50.0°F 26.1°F 39% 30.29 in 10.0 miles South 8.1 mph - N/A   Clear
4:53 PM 48.9°F 26.1°F 41% 30.28 in 10.0 miles SE 3.5 mph - N/A   Clear
5:53 PM 46.0°F 27.0°F 47% 30.27 in 10.0 miles ESE 3.5 mph - N/A   Clear
6:53 PM 41.0°F 27.0°F 57% 30.27 in 10.0 miles East 5.8 mph - N/A   Clear
7:53 PM 39.0°F 27.0°F 62% 30.26 in 10.0 miles Calm Calm - N/A   Clear
8:53 PM 36.0°F 27.0°F 70% 30.26 in 10.0 miles East 3.5 mph - N/A   Clear
9:53 PM 34.0°F 26.1°F 73% 30.25 in 10.0 miles Calm Calm - N/A   Clear
10:53 PM 32.0°F 28.0°F 85% 30.24 in 10.0 miles Calm Calm - N/A   Mostly Cloudy
11:53 PM 32.0°F 28.0°F 85% 30.23 in 10.0 miles Calm Calm - N/A   Mostly Cloudy
Moon Phase
Feb. 26 Mar. 04 Mar. 11 Mar. 19 Mar. 27
Sunrise:06:40 AM (PST) Moon Rise:07:08 PM (PST)2/26
Sunset:05:38 PM (PST) Moon Set:06:39 AM (PST)2/26

Copyright © 2014 The Weather Underground, Inc.